Miscellaneous Local Product
Issued by NWS Hastings, NE

Home | Current Version | Previous Version | Graphics & Text | Print | Product List | Glossary On
Versions: 1 2 3 4 5 6 7 8 9 10 11 12 13 14 15 16 17 18 19 20 21 22 23 24 25 26 27 28 29 30 31 32 33 34 35 36 37 38 39 40 41 42 43 44 45 46 47 48 49 50
000
AXUS43 KGID 111502
MISGRI

GID CWA HOURLY WEATHER ROUNDUP
NATIONAL WEATHER SERVICE HASTINGS NE
1000 AM CDT FRI JUL 11 2014

NOTE: "FAIR" INDICATES FEW OR NO CLOUDS BELOW 12,000 FEET WITH NO
SIGNIFICANT WEATHER AND/OR OBSTRUCTIONS TO VISIBILITY.

...SOUTH CENTRAL NEBRASKA...

CITY           SKY/WX    TMP DP  RH WIND       PRES   REMARKS
GRAND ISLAND   CLOUDY    77  69  76 S13       29.98S
HASTINGS       PTSUNNY   74  66  76 SE9       29.99R
KEARNEY        CLOUDY    73  66  78 S13       29.99S
ORD            LGT RAIN  72  69  90 SE6       29.97S
YORK           PTSUNNY   73  70  88 S9        29.99R
AURORA         PTSUNNY   74  71  88 S12       29.99R
LEXINGTON      CLOUDY    73  69  86 S15       29.96F
HOLDREGE       MOSUNNY   75  68  78 S8        29.98S
HEBRON         CLOUDY    76  68  76 SE6       30.01S

...NEBRASKA PANHANDLE...

CITY           SKY/WX    TMP DP  RH WIND       PRES   REMARKS
CHADRON        MOSUNNY   78  65  63 SW5       30.00R
ALLIANCE       MOSUNNY   75  64  68 SW8       30.05S
SCOTTSBLUFF    MOSUNNY   76  61  59 SE5       30.06R
SIDNEY         MOSUNNY   72  63  73 S6        30.09R

...WESTERN AND NORTH CENTRAL NEBRASKA...

CITY           SKY/WX    TMP DP  RH WIND       PRES   REMARKS
VALENTINE      MOSUNNY   80  66  62 VRB3      29.98R
AINSWORTH      PTSUNNY   74  67  77 S7        29.98S
ONEILL         CLOUDY    73  66  80 S10       29.98R
BROKEN BOW     CLOUDY    71  69  93 SW6       30.01R
IMPERIAL       PTSUNNY   73  67  81 S8        30.00S
NORTH PLATTE   LGT RAIN  72  68  87 N7        29.97R
MCCOOK         MOSUNNY   74  69  85 SE10      29.99F

...EASTERN NEBRASKA...

CITY           SKY/WX    TMP DP  RH WIND       PRES   REMARKS
NORFOLK        LGT RAIN  71  68  90 S10       29.95F
SO SIOUX CITY  CLOUDY    73  68  84 S15G22    29.94F
TEKAMAH        CLOUDY    71  66  84 SE16      29.98R
ALBION         CLOUDY    70  66  86 S5        29.99R
OMAHA EPPLEY   CLOUDY    72  65  78 SE15      30.00R
OFFUTT AFB     CLOUDY    72  71  98 SE12      30.00F
MILLARD        CLOUDY    72  67  83 SE7       30.00S
LINCOLN        CLOUDY    76  67  73 S10       29.99F
NEBRASKA CITY  CLOUDY    73  67  82 CALM      30.03F
BEATRICE       PTSUNNY   73  67  81 S10       30.01S
FALLS CITY     PTSUNNY   76  68  76 S16       30.00F

...NORTHERN KANSAS...

CITY           SKY/WX    TMP DP  RH WIND       PRES   REMARKS
GOODLAND       SUNNY     79  55  43 S6        30.02S
HILL CITY      MOSUNNY   81  66  60 NE10      30.00R
NORTON         SUNNY     81  57  44 SE5       29.99R
PHILLIPSBURG   SUNNY     79  66  65 E9        29.98F
SMITH CENTER   SUNNY     73  66  78 SE10      30.00S
BELOIT         SUNNY     73  66  78 E5        29.99R
HAYS           SUNNY    N/A N/A N/A W13       29.98R
RUSSELL        SUNNY     82  62  50 SW13      29.97R
CONCORDIA      MOSUNNY   75  68  78 SE8       30.00S
SALINA         MOSUNNY   85  66  53 S15       29.98R
TOPEKA         MOSUNNY   80  69  69 S10       30.02F



USA.gov is the U.S. government's official web portal to all federal, state and local government web resources and services.